Hourly Weather Wabal

Today, 2 July, Thursday

Time Temperature Precipitation Wind Pressure Humidity
00:00 +23°C° 0 mm 0 mps 751 mmHg 96%
01:00 +23°C° 0 mm 0 mps 750 mmHg 96%
02:00 +23°C° 0 mm 0 mps 750 mmHg 96%
03:00 +23°C° 0 mm 0 mps 750 mmHg 95%
04:00 +23°C° 0 mm 0 mps 750 mmHg 96%
05:00 +23°C° 0 mm 0 mps 750 mmHg 95%
06:00 +23°C° 0 mm 0 mps 751 mmHg 95%
07:00 +22°C° 0 mm 0 mps 751 mmHg 95%
08:00 +25°C° 0 mm 0 mps 751 mmHg 86%
09:00 +27°C° 0 mm 0 mps 751 mmHg 78%
10:00 +31°C° 0 mm 1 mps 751 mmHg 69%
11:00 +31°C° 0.4 mm 1 mps 751 mmHg 68%
12:00 +32°C° 0.4 mm 1 mps 750 mmHg 67%
13:00 +33°C° 0.4 mm 1 mps 749 mmHg 66%
14:00 +32°C° 1.1 mm 1 mps 749 mmHg 72%
15:00 +31°C° 1.1 mm 1 mps 749 mmHg 77%
16:00 +29°C° 1.1 mm 0 mps 749 mmHg 83%
17:00 +29°C° 0.8 mm 1 mps 749 mmHg 87%
18:00 +27°C° 0.8 mm 1 mps 750 mmHg 91%
19:00 +26°C° 0.8 mm 1 mps 750 mmHg 95%
20:00 +25°C° 0.1 mm 1 mps 750 mmHg 95%
21:00 +25°C° 0.1 mm 1 mps 751 mmHg 96%
22:00 +25°C° 0.1 mm 1 mps 751 mmHg 96%
23:00 +25°C° 0 mm 1 mps 751 mmHg 96%

Tomorrow, 3 July, Friday

Time Temperature Precipitation Wind Pressure Humidity
00:00 +25°C° 0 mm 1 mps 751 mmHg 96%
01:00 +25°C° 0 mm 1 mps 751 mmHg 96%
02:00 +25°C° 0 mm 1 mps 751 mmHg 95%
03:00 +25°C° 0 mm 1 mps 751 mmHg 95%
04:00 +24°C° 0 mm 1 mps 750 mmHg 95%
05:00 +24°C° 0 mm 1 mps 750 mmHg 94%
06:00 +24°C° 0 mm 1 mps 751 mmHg 94%
07:00 +24°C° 0 mm 1 mps 751 mmHg 94%
08:00 +26°C° 0 mm 1 mps 751 mmHg 85%
09:00 +29°C° 0 mm 1 mps 751 mmHg 75%
10:00 +31°C° 0 mm 1 mps 751 mmHg 66%
11:00 +32°C° 0 mm 1 mps 751 mmHg 60%
12:00 +34°C° 0 mm 1 mps 750 mmHg 54%
13:00 +36°C° 0 mm 1 mps 749 mmHg 49%
14:00 +35°C° 0.1 mm 1 mps 749 mmHg 51%
15:00 +35°C° 0.1 mm 1 mps 749 mmHg 52%
16:00 +34°C° 0.1 mm 1 mps 748 mmHg 54%
17:00 +32°C° 0.3 mm 1 mps 749 mmHg 66%
18:00 +30°C° 0.3 mm 1 mps 749 mmHg 79%
19:00 +25°C° 0.3 mm 0 mps 750 mmHg 91%
20:00 +27°C° 0 mm 1 mps 751 mmHg 92%
21:00 +26°C° 0 mm 1 mps 751 mmHg 94%
22:00 +26°C° 0 mm 1 mps 752 mmHg 96%
23:00 +25°C° 0 mm 1 mps 751 mmHg 96%

Day after tomorrow, 4 July, Saturday

Time Temperature Precipitation Wind Pressure Humidity
00:00 +25°C° 0 mm 1 mps 751 mmHg 96%
01:00 +25°C° 0 mm 1 mps 751 mmHg 97%
02:00 +25°C° 0 mm 1 mps 751 mmHg 96%
03:00 +22°C° 0 mm 0 mps 751 mmHg 96%
04:00 +22°C° 0 mm 0 mps 750 mmHg 96%
05:00 +22°C° 0 mm 0 mps 751 mmHg 95%
06:00 +22°C° 0 mm 0 mps 751 mmHg 94%
07:00 +22°C° 0 mm 0 mps 751 mmHg 94%
08:00 +25°C° 0 mm 0 mps 751 mmHg 83%
09:00 +27°C° 0 mm 0 mps 751 mmHg 72%
10:00 +30°C° 0 mm 0 mps 751 mmHg 61%
11:00 +31°C° 0 mm 0 mps 751 mmHg 56%
12:00 +35°C° 0 mm 1 mps 750 mmHg 52%
13:00 +36°C° 0 mm 1 mps 749 mmHg 47%
14:00 +36°C° 0 mm 1 mps 749 mmHg 47%
15:00 +35°C° 0 mm 1 mps 749 mmHg 48%
16:00 +35°C° 0 mm 1 mps 748 mmHg 48%
17:00 +33°C° 0.1 mm 1 mps 749 mmHg 60%
18:00 +28°C° 0.1 mm 0 mps 749 mmHg 72%
19:00 +26°C° 0.1 mm 0 mps 749 mmHg 84%
20:00 +25°C° 0.1 mm 0 mps 750 mmHg 87%
21:00 +26°C° 0.1 mm 1 mps 751 mmHg 90%
22:00 +26°C° 0.1 mm 1 mps 751 mmHg 93%
23:00 +25°C° 0.5 mm 1 mps 751 mmHg 94%

5 July, Sunday

Time Temperature Precipitation Wind Pressure Humidity
00:00 +25°C° 0.5 mm 1 mps 751 mmHg 95%
01:00 +25°C° 0.5 mm 1 mps 750 mmHg 97%
02:00 +24°C° 0.2 mm 1 mps 750 mmHg 97%
03:00 +24°C° 0.2 mm 1 mps 750 mmHg 97%
04:00 +24°C° 0.2 mm 1 mps 749 mmHg 97%
05:00 +22°C° 0 mm 0 mps 750 mmHg 96%
06:00 +22°C° 0 mm 0 mps 750 mmHg 95%
07:00 +22°C° 0 mm 0 mps 751 mmHg 95%
08:00 +24°C° 0 mm 0 mps 751 mmHg 85%
09:00 +27°C° 0 mm 0 mps 751 mmHg 75%
10:00 +29°C° 0 mm 0 mps 751 mmHg 66%
11:00 +32°C° 0.1 mm 1 mps 750 mmHg 61%
12:00 +34°C° 0.1 mm 1 mps 750 mmHg 56%
13:00 +35°C° 0.1 mm 1 mps 749 mmHg 51%
14:00 +34°C° 0.4 mm 1 mps 749 mmHg 59%
15:00 +33°C° 0.4 mm 1 mps 748 mmHg 66%
16:00 +31°C° 0.4 mm 1 mps 748 mmHg 74%
17:00 +30°C° 0.8 mm 1 mps 748 mmHg 81%
18:00 +26°C° 0.8 mm 0 mps 749 mmHg 89%
19:00 +24°C° 0.8 mm 0 mps 750 mmHg 96%
20:00 +24°C° 0.2 mm 0 mps 750 mmHg 96%
21:00 +24°C° 0.2 mm 0 mps 750 mmHg 96%
22:00 +26°C° 0.2 mm 1 mps 751 mmHg 97%
23:00 +25°C° 0 mm 1 mps 751 mmHg 97%

6 July, Monday

Time Temperature Precipitation Wind Pressure Humidity
00:00 +23°C° 0 mm 0 mps 750 mmHg 96%
01:00 +23°C° 0 mm 0 mps 750 mmHg 96%
02:00 +25°C° 0.2 mm 1 mps 750 mmHg 96%
03:00 +25°C° 0.2 mm 1 mps 750 mmHg 96%
04:00 +25°C° 0.2 mm 1 mps 750 mmHg 96%
05:00 +24°C° 0.5 mm 1 mps 750 mmHg 97%
06:00 +24°C° 0.5 mm 1 mps 751 mmHg 97%
07:00 +24°C° 0.5 mm 1 mps 751 mmHg 97%
08:00 +26°C° 0.4 mm 1 mps 751 mmHg 93%
09:00 +27°C° 0.4 mm 1 mps 751 mmHg 88%
10:00 +28°C° 0.4 mm 1 mps 752 mmHg 84%
11:00 +28°C° 1 mm 1 mps 751 mmHg 86%
12:00 +28°C° 1 mm 1 mps 750 mmHg 89%
13:00 +28°C° 1 mm 1 mps 750 mmHg 91%
14:00 +28°C° 0.3 mm 1 mps 749 mmHg 88%
15:00 +29°C° 0.3 mm 1 mps 749 mmHg 85%
16:00 +29°C° 0.3 mm 1 mps 748 mmHg 82%
17:00 +28°C° 0 mm 1 mps 749 mmHg 85%
18:00 +26°C° 0 mm 0 mps 749 mmHg 88%
19:00 +25°C° 0 mm 0 mps 750 mmHg 91%
20:00 +24°C° 0 mm 0 mps 750 mmHg 91%
21:00 +24°C° 0 mm 0 mps 751 mmHg 91%
22:00 +24°C° 0 mm 0 mps 751 mmHg 91%
23:00 +24°C° 0.2 mm 0 mps 751 mmHg 92%

7 July, Tuesday

Time Temperature Precipitation Wind Pressure Humidity
00:00 +23°C° 0.2 mm 0 mps 751 mmHg 93%
01:00 +23°C° 0.2 mm 0 mps 750 mmHg 94%
02:00 +23°C° 0.1 mm 0 mps 750 mmHg 94%
03:00 +23°C° 0.1 mm 0 mps 750 mmHg 95%
04:00 +22°C° 0.1 mm 0 mps 750 mmHg 95%
05:00 +22°C° 0 mm 0 mps 750 mmHg 95%
06:00 +22°C° 0 mm 0 mps 751 mmHg 94%
07:00 +22°C° 0 mm 0 mps 751 mmHg 94%
08:00 +27°C° 0 mm 1 mps 751 mmHg 82%
09:00 +29°C° 0 mm 1 mps 751 mmHg 71%
10:00 +31°C° 0 mm 1 mps 751 mmHg 60%
11:00 +33°C° 0 mm 1 mps 750 mmHg 54%
12:00 +34°C° 0 mm 1 mps 750 mmHg 49%
13:00 +36°C° 0 mm 1 mps 749 mmHg 44%
14:00 +36°C° 0 mm 1 mps 749 mmHg 43%
15:00 +36°C° 0 mm 1 mps 748 mmHg 43%
16:00 +34°C° 0 mm 0 mps 748 mmHg 42%
17:00 +33°C° 0 mm 1 mps 748 mmHg 54%
18:00 +30°C° 0 mm 1 mps 749 mmHg 66%
19:00 +28°C° 0 mm 1 mps 750 mmHg 78%
20:00 +27°C° 0.1 mm 1 mps 750 mmHg 82%
21:00 +26°C° 0.1 mm 1 mps 751 mmHg 86%
22:00 +26°C° 0.1 mm 1 mps 751 mmHg 89%
23:00 +25°C° 0 mm 1 mps 751 mmHg 90%
Show more